Cloud_Cover
100 100 100 5 5 5 5 22 97 93 100 100 100 100 100 82 44 4 0 0 0 0 0 0 0 0 0 0 0 0 0 0 0 0 0 0 0 0 0 0 40 21 13 100
5 6 26 9 62 78 100 100 96 64 100 100 100 20 5 1 0 0 0 0 0 0 0 0 0 0 0 0 0 0 0 0 0 0 0 0 0 0 0 6 60 66 92 69
5 40 52 100 84 88 66 99 100 100 100 100 100 7 1 3 5 1 2 0 0 0 0 0 0 0 0 0 0 0 0 0 0 0 0 0 0 0 0 23 41 73 98 100
56 76 34 5 78 90 100 100 100 100 92 24 5 5 5 2 2 4 1 0 0 0 0 0 0 0 0 0 0 0 0 0 0 0 0 2 39 95 95 94 61 21 97 100
5 42 9 5 6 58 100 100 93 30 5 5 4 4 0 0 0 0 0 0 0 0 0 1 0 0 0 0 0 0 0 0 0 1 38 86 100 100 100 100 79 100 99 100
5 98 31 9 26 93 29 26 5 5 5 5 5 5 2 0 0 0 0 0 0 0 1 2 1 0 0 0 0 0 0 0 0 0 2 29 41 68 100 92 98 100 100 100
36 97 100 78 5 5 5 5 5 17 43 62 7 3 3 0 0 0 0 3 4 5 2 0 0 0 0 0 0 0 0 0 0 0 0 2 30 100 100 100 100 100 100 100
32 68 13 63 5 4 3 2 5 5 7 60 85 22 0 0 0 0 0 0 1 2 4 0 0 0 0 0 0 0 0 0 1 0 8 15 100 100 100 100 100 100 100 100
6 5 5 2 4 5 14 37 5 5 5 5 5 6 5 4 0 0 0 0 0 0 0 0 0 0 0 0 0 0 0 0 8 19 14 24 100 100 100 96 100 100 100 100
5 2 4 3 5 5 5 5 43 5 4 0 4 78 7 3 0 0 0 0 0 0 0 0 0 0 0 0 0 0 0 0 18 100 100 61 100 98 100 100 100 100 100 100
12 5 5 5 5 6 5 13 37 5 4 5 5 67 2 0 0 0 0 0 0 0 0 0 0 5 3 4 0 4 5 9 68 100 100 100 100 100 100 100 100 100 100 100
5 66 32 18 5 32 100 100 10 0 0 5 5 0 0 0 0 0 0 0 0 0 0 0 23 82 5 5 5 5 28 100 100 100 100 100 100 100 100 100 100 100 100 100
33 23 69 100 100 100 100 5 3 4 5 5 0 0 0 0 0 0 0 0 0 0 0 8 98 100 95 84 66 98 74 100 100 100 100 100 100 100 100 95 93 100 100 100
100 100 100 100 100 95 15 5 2 0 0 0 3 5 5 4 0 0 0 0 0 4 5 16 22 41 100 50 100 98 100 100 100 100 100 100 100 100 100 89 100 100 100 100
100 100 100 82 11 5 5 5 3 4 0 5 87 88 14 5 5 0 0 0 0 2 4 45 27 67 96 91 100 100 100 100 100 100 100 100 100 100 100 82 85 100 100 100
100 99 57 30 5 20 5 5 6 3 5 26 100 100 79 5 0 0 0 1 5 5 5 23 90 100 100 100 100 100 100 100 100 100 100 100 100 100 100 71 100 100 100 100
27 44 20 8 8 14 17 89 100 27 19 100 100 74 100 2 5 14 5 43 5 5 5 6 6 85 100 100 100 100 100 100 100 100 100 100 100 100 100 91 100 95 100 97
100 100 9 30 30 5 5 100 100 75 100 100 100 99 5 5 5 5 3 16 40 93 38 9 33 60 100 100 100 100 100 100 100 97 100 100 100 100 100 50 44 82 92 100
100 100 90 39 6 29 98 100 100 100 100 100 93 30 5 7 16 5 5 36 100 97 18 7 99 100 100 100 100 100 100 100 99 93 100 100 100 100 100 97 80 100 85 78
5 11 39 6 11 100 100 100 100 100 100 100 71 5 82 100 55 5 18 100 100 100 100 100 100 100 100 100 100 100 100 99 99 100 100 100 100 100 94 76 72 78 100 100
100 100 76 100 100 100 100 100 100 100 100 61 5 95 100 87 30 64 100 100 100 100 100 100 100 100 100 100 98 87 90 74 81 83 100 100 100 97 100 100 75 76 97 82
50 68 54 100 99 94 100 100 100 100 38 5 9 66 100 8 5 84 100 100 100 100 100 99 98 94 98 100 99 81 71 46 80 31 100 100 100 100 100 100 96 96 99 97
56 78 41 100 61 100 100 100 100 84 5 11 36 13 100 85 63 100 100 100 100 100 100 99 51 66 48 5 5 5 20 74 6 81 72 100 100 100 100 100 85 86 98 100
100 34 5 93 100 100 99 26 5 5 5 13 66 100 100 100 100 100 100 100 100 95 85 100 93 62 82 60 58 96 100 86 73 84 100 100 100 100 100 100 100 100 100 100
98 37 100 100 66 59 41 5 5 5 5 5 98 100 100 100 100 100 100 98 95 93 96 98 81 72 69 87 53 83 67 63 100 96 100 100 100 100 100 100 100 100 100 100
94 59 100 100 37 8 5 21 45 5 5 6 52 100 98 99 94 83 100 90 98 99 57 57 89 72 94 66 17 49 53 71 100 100 100 100 100 100 100 100 100 100 100 100